Hourly Data Report for October 31, 2020

VICTORIA UNIVERSITY CS
BRITISH COLUMBIA
Current Station Operator: ECCC - MSC

48°27'25.200" N
123°18'16.600" W
60.10 m
1018598
71783
WYJ

Download Data

Hourly Data (October 2020)
Hourly Data Report for October 31, 2020
TIME
LST
Temp Definition
°C
Dew Point Definition
°C
Rel Hum Definition
%
Precip. Amount Definition
mm

Wind Dir Definition
10's deg

Wind Spd Definition
km/h
Visibility Definition
km
Stn Press Definition
kPa
Hmdx Definition


Wind Chill Definition


Weather Definition


00:00 4.2 4.1 99 0.0 26 2   101.91     LegendNANA
01:00 3.9 3.8 99 0.0   0   101.99     LegendNANA
02:00 3.3 3.2 99 0.0 0 1   102.04     LegendNANA
03:00 3.6 3.6 100 0.0 33 3   102.09     LegendNANA
04:00 4.1 4.1 100 0.0 32 2   102.14     LegendNANA
05:00 4.1 4.0 100 0.0 35 4   102.18     LegendNANA
06:00 4.0 3.9 100 0.0 32 7   102.20     LegendNANA
07:00 5.4 4.3 92 0.0 34 5   102.20     LegendNANA
08:00 4.5 4.4 100 0.0 0 1   102.28     LegendNANA
09:00 8.0 5.2 82 0.0 36 8   102.30     LegendNANA
10:00 8.7 5.5 80 0.2 2 8   102.33     LegendNANA
11:00 9.0 6.0 81 0.0 2 8   102.36     LegendNANA
12:00 10.4 5.6 72 0.0 36 4   102.28     LegendNANA
13:00 10.5 6.1 74 0.0 9 3   102.27     LegendNANA
14:00 10.4 6.2 75 0.0 1 8   102.20     LegendNANA
15:00 10.5 4.0 64 0.0 35 9   102.16     LegendNANA
16:00 9.8 5.5 74 0.0 35 7   102.15     LegendNANA
17:00 8.5 5.7 82 0.0 36 5   102.10     LegendNANA
18:00 8.0 6.4 90 0.0 33 6   102.10     LegendNANA
19:00 7.7 7.0 96 0.0 36 6   102.09     LegendNANA
20:00 7.6 6.9 95 0.0 34 4   102.09     LegendNANA
21:00 7.4 6.6 95 0.0 35 4   102.09     LegendNANA
22:00 7.3 5.6 89 0.0 35 7   102.06     LegendNANA
23:00 7.2 4.3 82 0.0 34 8   102.04     LegendNANA

Notes on Data Quality.

Legend

  • E = Estimated
  • M = Missing
  • NA = Not Available*
  • [empty] = Indicates an unobserved value
Date modified: